Regional Weather Roundup
Issued by NWS

Home | Current Version | Previous Version | Text Only | Print | Product List | Glossary Off
Versions: 1 2 3 4 5 6 7 8 9 10 11 12 13 14 15 16 17 18 19 20 21 22 23 24 25 26 27 28 29 30 31 32 33 34 35 36 37 38 39 40 41 42 43 44 45 46 47 48 49 50

000
ASUS43 KLSX 050407
RWRMO

WEATHER SUMMARY FOR MISSOURI
NATIONAL WEATHER SERVICE SPRINGFIELD MO
1000 PM CST WED MAR 04 2015

NOTE: "FAIR" INDICATES FEW OR NO CLOUDS BELOW 12,000 FEET WITH NO
       SIGNIFICANT WEATHER AND/OR OBSTRUCTIONS TO VISIBILITY.
       CURRENT SKY AND/OR WEATHER CONDITIONS ARE NOT AVAILABLE FOR
       CHILLICOTHE AND FARMINGTON.

MOZ001>031-035>038-043-044-053-054-050500-
...NORTHERN AND WESTERN MISSOURI...

CITY           SKY/WX    TMP DP  RH WIND       PRES   REMARKS
KANSAS CTY INT MOCLDY    23   5  46 N14       30.40R WCI  11
KANSAS C DTWN  PTCLDY    27   5  39 N12       30.41R WCI  17
LEE`S SUMMIT   MOCLDY    23   8  52 NW5       30.38S WCI  17
ST JOSEPH      CLEAR     18   3  52 N10       30.44R WCI   6
CHILLICOTHE      N/A     24   7  48 N13       30.42R WCI  12

$$
MOZ066>068-077>081-088>096-101>105-050500-
...SOUTHWEST MISSOURI...

CITY           SKY/WX    TMP DP  RH WIND       PRES   REMARKS
SPRINGFIELD    CLOUDY    23   9  55 N9        30.34R WCI  13
JOPLIN         CLOUDY    24   7  48 N6        30.39R WCI  17

$$
MOZ032>034-039>042-045>050-055>058-069>072-050500-
...CENTRAL MISSOURI...

CITY           SKY/WX    TMP DP  RH WIND       PRES   REMARKS
COLUMBIA       MOCLDY    22   7  52 CALM      30.36R
JEFFERSON CITY MOCLDY    23   4  44 CALM      30.40R
ROLLA          CLOUDY    21   6  52 N6        30.32R WCI  13
SEDALIA        CLOUDY    24   9  52 W3        30.38S
WARRENSBURG    MOCLDY    23  12  63 CALM      30.40R
OSAGE BEACH    PTCLDY    23   3  42 CALM      30.37R

$$
MOZ051-052-059>065-050500-
...EAST CENTRAL MISSOURI...

CITY           SKY/WX    TMP DP  RH WIND       PRES   REMARKS
ST LOUIS INTL  CLOUDY    23   4  44 N9        30.39R WCI  13
SPIRIT OF STL  CLOUDY    23   1  38 NE8       30.39S WCI  14
ST CHARLES     MOCLDY    21   4  47 N5        30.41R WCI  15

$$
MOZ072>076-082>087-097>100-106>115-050500-
...SOUTH CENTRAL AND SOUTHEAST MISSOURI...

CITY           SKY/WX    TMP DP  RH WIND       PRES   REMARKS
CAPE GIRARDEAU CLOUDY    19  16  88 N14       30.33F FOG     WCI   6
FARMINGTON     CLOUDY    19   9  63 N7        30.36R WCI  10
POPLAR BLUFF   CLOUDY    20  15  81 N13       30.32F HAZE    WCI   7
WEST PLAINS    CLOUDY    20  10  65 N6        30.31R WCI  12

$$



USA.gov is the U.S. government's official web portal to all federal, state and local government web resources and services.